K4AVM-13 Weather Reports


time (UTC)temp
F
wind
direction
speed
knots
gust
knots
rain 1hr
in
rain 24hr
in
rain mn
in
humidity
%
barometer
mb
20260510153242 81 147 0.0 2.6 0.00 0.00 0.00 39 1015.9
20260510152734 82 144 0.0 1.7 0.00 0.00 0.00 39 1016.0
20260510152230 81 143 0.0 0.9 0.00 0.00 0.00 43 1015.9
20260510151727 80 197 0.9 1.7 0.00 0.00 0.00 42 1016.0
20260510151226 80 94 0.0 0.9 0.00 0.00 0.00 40 1015.8
20260510150721 80 175 0.9 2.6 0.00 0.00 0.00 40 1016.1
20260510150216 81 146 0.9 2.6 0.00 0.00 0.00 42 1016.0
20260510145713 80 164 0.0 2.6 0.00 0.00 0.00 41 1016.2
20260510145209 80 181 1.7 2.6 0.00 0.00 0.00 40 1016.2
20260510144706 79 151 0.0 1.7 0.00 0.00 0.00 41 1016.1
20260510144203 79 150 0.0 0.9 0.00 0.00 0.00 41 1015.9
20260510143657 79 126 0.9 0.9 0.00 0.00 0.00 40 1015.8
20260510143154 79 168 0.9 1.7 0.00 0.00 0.00 41 1015.9
20260510142650 78 128 0.0 0.9 0.00 0.00 0.00 44 1015.8
20260510142147 77 145 0.0 1.7 0.00 0.00 0.00 46 1015.8
20260510141644 77 338 1.7 1.7 0.00 0.00 0.00 45 1015.8
20260510141142 77 193 0.9 0.9 0.00 0.00 0.00 46 1015.8
20260510140638 78 88 0.0 1.7 0.00 0.00 0.00 46 1015.9
20260510140137 78 156 0.0 0.9 0.00 0.00 0.00 48 1015.8
20260510135633 76 58 0.9 1.7 0.00 0.00 0.00 50 1015.7
20260510135129 76 146 0.0 0.9 0.00 0.00 0.00 55 1015.8
20260510134626 75 107 0.9 1.7 0.00 0.00 0.00 52 1015.7
20260510134124 75 148 0.0 2.6 0.00 0.00 0.00 59 1015.6
20260510133620 75 169 0.9 0.9 0.00 0.00 0.00 56 1015.7
20260510133115 74 139 0.9 0.9 0.00 0.00 0.00 56 1015.8
20260510132612 74 324 1.7 2.6 0.00 0.00 0.00 58 1015.9
20260510132109 74 149 0.0 1.7 0.00 0.00 0.00 61 1015.9
20260510131607 74 140 0.0 0.9 0.00 0.00 0.00 62 1015.8
20260510131104 73 136 0.0 0.9 0.00 0.00 0.00 61 1015.8
20260510130600 72 156 0.0 0.9 0.00 0.00 0.00 63 1015.7
20260510130058 71 141 0.9 0.9 0.00 0.00 0.00 64 1015.5
20260510125554 71 156 0.0 2.6 0.00 0.00 0.00 66 1015.4
20260510125050 71 154 0.0 0.9 0.00 0.00 0.00 68 1015.6
20260510124547 70 20 0.0 0.9 0.00 0.00 0.00 67 1015.5
20260510124044 69 148 0.0 1.7 0.00 0.00 0.00 70 1015.4
20260510123539 69 155 0.9 1.7 0.00 0.00 0.00 69 1015.5
20260510123036 69 142 0.0 0.9 0.00 0.00 0.00 72 1015.6
20260510122531 68 98 0.0 0.0 0.00 0.00 0.00 74 1015.6
20260510122028 67 145 0.0 0.9 0.00 0.00 0.00 77 1015.2
20260510121525 66 132 0.0 0.9 0.00 0.00 0.00 78 1015.3
20260510121022 66 148 0.0 0.9 0.00 0.00 0.00 79 1015.1
20260510120520 65 153 0.0 1.7 0.00 0.00 0.00 80 1015.1
20260510120016 64 146 0.0 0.0 0.00 0.00 0.00 84 1014.9
20260510115512 62 164 0.0 0.9 0.00 0.00 0.00 87 1014.9
20260510115009 60 159 0.0 0.0 0.00 0.00 0.00 92 1014.9
20260510114505 59 158 0.0 0.0 0.00 0.00 0.00 96 1014.7
20260510114001 59 162 0.0 0.0 0.00 0.00 0.00 99 1014.7
20260510113456 58 156 0.0 0.0 0.00 0.00 0.00 99 1014.6
20260510112954 58 150 0.0 0.0 0.00 0.00 0.00 99 1014.8
20260510112451 58 146 0.0 0.0 0.00 0.00 0.00 99 1014.4
20260510111947 58 157 0.0 0.0 0.00 0.00 0.00 99 1014.6
20260510111443 57 165 0.9 0.9 0.00 0.00 0.00 99 1014.4
20260510110940 57 154 0.0 0.0 0.00 0.00 0.00 99 1014.2
20260510110436 56 156 0.0 0.0 0.00 0.00 0.00 99 1014.2
20260510105932 56 157 0.0 0.0 0.00 0.00 0.00 99 1014.4
20260510105427 56 157 0.0 0.0 0.00 0.00 0.00 99 1014.2
20260510104922 56 157 0.0 0.0 0.00 0.00 0.00 99 1014.1
20260510104419 55 157 0.0 0.0 0.00 0.00 0.00 99 1014.1
20260510103916 55 157 0.0 0.0 0.00 0.00 0.00 99 1014.0
20260510103413 55 158 0.0 0.0 0.00 0.00 0.00 99 1013.9
20260510102908 55 158 0.0 0.0 0.00 0.00 0.00 99 1013.8
20260510102404 54 158 0.0 0.0 0.00 0.00 0.00 99 1013.8
20260510101902 54 151 0.0 0.0 0.00 0.00 0.00 99 1013.8
20260510101359 54 155 0.0 0.0 0.00 0.00 0.00 99 1013.5
20260510100856 54 151 0.0 0.0 0.00 0.00 0.00 99 1013.4
20260510100353 54 148 0.0 0.0 0.00 0.00 0.00 99 1013.6
20260510095850 54 135 0.0 0.0 0.00 0.00 0.00 99 1013.4
20260510095344 55 141 0.0 0.0 0.00 0.00 0.00 99 1013.3
20260510094844 55 136 0.0 0.0 0.00 0.00 0.00 99 1013.4
20260510094339 54 144 0.0 0.0 0.00 0.00 0.00 99 1013.3
20260510093836 54 144 0.0 0.0 0.00 0.00 0.00 99 1013.4
20260510093332 54 145 0.0 0.0 0.00 0.00 0.00 99 1013.5
20260510092828 54 144 0.0 0.0 0.00 0.00 0.00 99 1013.3
20260510092324 55 142 0.0 0.0 0.00 0.00 0.00 99 1013.3
20260510091820 55 145 0.0 0.0 0.00 0.00 0.00 99 1013.2
20260510091318 55 145 0.0 0.0 0.00 0.00 0.00 99 1013.1
20260510090814 55 143 0.0 0.0 0.00 0.00 0.00 99 1013.1
20260510090311 55 145 0.0 0.0 0.00 0.00 0.00 99 1012.9
20260510085807 55 145 0.0 0.0 0.00 0.00 0.00 98 1012.9
20260510085307 56 145 0.0 0.0 0.00 0.00 0.00 98 1012.7
20260510084802 56 145 0.0 0.0 0.00 0.00 0.00 98 1012.8
20260510084300 57 145 0.0 0.0 0.00 0.00 0.00 98 1012.8
20260510083756 57 151 0.0 0.0 0.00 0.00 0.00 98 1012.7
20260510083254 57 151 0.0 0.0 0.00 0.00 0.00 98 1012.8
20260510082749 57 151 0.0 0.0 0.00 0.00 0.00 98 1012.9
20260510082245 57 151 0.0 0.0 0.00 0.00 0.00 97 1012.8
20260510081744 57 150 0.0 0.0 0.00 0.00 0.00 97 1012.8
20260510081241 58 151 0.0 0.0 0.00 0.00 0.00 97 1012.8
20260510080736 58 151 0.0 0.0 0.00 0.00 0.00 97 1012.7
20260510080232 58 151 0.0 0.0 0.00 0.00 0.00 97 1012.6
20260510075729 58 151 0.0 0.0 0.00 0.00 0.00 96 1012.7
20260510075227 58 151 0.0 0.0 0.00 0.00 0.00 96 1012.6
20260510074724 58 153 0.0 0.0 0.00 0.00 0.00 96 1012.6
20260510074220 58 151 0.0 0.0 0.00 0.00 0.00 95 1012.5
20260510073717 59 151 0.0 0.0 0.00 0.00 0.00 95 1012.5
20260510073212 59 151 0.0 0.0 0.00 0.00 0.00 94 1012.5
20260510072708 59 151 0.0 0.0 0.00 0.00 0.00 94 1012.6
20260510072205 59 145 0.0 0.0 0.00 0.00 0.00 93 1012.5
20260510071701 60 145 0.0 0.0 0.00 0.00 0.00 93 1012.4
20260510071159 60 149 0.0 0.0 0.00 0.00 0.00 92 1012.4
20260510070656 60 149 0.0 0.0 0.00 0.00 0.00 92 1012.5
20260510070154 61 149 0.0 0.0 0.00 0.00 0.00 91 1012.5
20260510065649 61 149 0.0 0.0 0.00 0.00 0.00 91 1012.7
20260510065145 61 141 0.0 0.0 0.00 0.00 0.00 90 1012.5
20260510064642 62 136 0.0 0.0 0.00 0.00 0.00 89 1012.6
20260510064139 62 151 0.0 0.0 0.00 0.00 0.00 89 1012.6
20260510063636 62 151 0.0 0.0 0.00 0.00 0.00 88 1012.4
20260510063132 63 152 0.0 0.0 0.00 0.00 0.00 88 1012.5
20260510062628 63 141 0.0 0.0 0.00 0.00 0.00 87 1012.7
20260510062124 63 141 0.0 0.0 0.00 0.00 0.00 86 1012.4
20260510061620 64 153 0.0 0.0 0.00 0.00 0.00 86 1012.5
20260510061118 64 156 0.0 0.9 0.00 0.00 0.00 85 1012.5
20260510060613 65 151 0.0 0.0 0.00 0.00 0.00 84 1012.4
20260510060110 65 150 0.0 1.7 0.00 0.00 0.00 83 1012.4
20260510055606 65 153 0.0 1.7 0.00 0.00 0.00 83 1012.4
20260510055104 66 161 0.0 0.9 0.00 0.00 0.00 83 1012.5
20260510054600 66 153 0.0 1.7 0.00 0.00 0.00 82 1012.5
20260510054055 66 156 0.0 1.7 0.00 0.00 0.00 82 1012.5
20260510053549 66 151 0.0 0.9 0.00 0.00 0.00 82 1012.6
20260510053047 66 164 0.0 2.6 0.00 0.00 0.00 82 1012.4
20260510052542 66 99 0.0 1.7 0.00 0.00 0.00 82 1012.5
20260510052038 66 153 0.0 0.9 0.00 0.00 0.00 82 1012.4
20260510051534 66 149 0.0 1.7 0.00 0.00 0.00 82 1012.4
20260510051031 66 141 0.0 0.9 0.00 0.00 0.00 82 1012.7
20260510050528 66 155 0.9 0.9 0.00 0.00 0.00 82 1012.5
20260510050026 66 160 0.0 2.6 0.00 0.00 0.00 81 1012.5
20260510045522 66 135 0.0 0.0 0.00 0.00 0.00 81 1012.5
20260510045018 66 151 0.0 0.9 0.00 0.00 0.00 80 1012.7
20260510044515 66 160 0.0 1.7 0.00 0.00 0.00 81 1012.6
20260510044014 65 146 0.0 0.0 0.00 0.00 0.00 82 1012.8
20260510043513 66 164 0.0 0.0 0.00 0.00 0.00 80 1012.6
20260510043009 66 160 1.7 1.7 0.00 0.00 0.00 81 1012.5
20260510042503 65 158 0.0 0.0 0.00 0.00 0.00 81 1012.4
20260510041958 65 134 0.9 1.7 0.00 0.00 0.00 81 1012.6
20260510041455 65 149 0.0 0.0 0.00 0.00 0.00 81 1012.7
20260510040954 65 151 0.0 0.9 0.00 0.00 0.00 81 1012.4
20260510040450 65 151 0.0 0.0 0.00 0.00 0.00 80 1012.4
20260510035946 65 154 1.7 6.1 0.00 0.00 0.00 80 1012.6
20260510035442 64 161 0.0 0.9 0.00 0.00 0.00 80 1012.5
20260510034937 64 165 0.0 0.9 0.00 0.00 0.00 81 1012.4
20260510034436 63 136 0.0 0.0 0.00 0.00 0.00 81 1012.4
20260510033932 63 154 0.0 0.0 0.00 0.00 0.00 81 1012.3
20260510033428 63 144 0.0 0.0 0.00 0.00 0.00 81 1012.4
20260510032925 63 141 0.0 0.0 0.00 0.00 0.00 81 1012.2
20260510032421 63 145 0.0 0.0 0.00 0.00 0.00 81 1012.2
20260510031916 63 151 0.0 0.0 0.00 0.00 0.00 80 1012.3
20260510031413 64 145 0.0 0.0 0.00 0.00 0.00 80 1012.2
20260510030912 64 151 0.0 0.0 0.00 0.00 0.00 79 1012.3
20260510030409 64 151 0.0 0.0 0.00 0.00 0.00 78 1012.3
20260510025907 64 154 0.0 1.7 0.00 0.00 0.00 77 1012.2
20260510025404 65 151 0.0 0.0 0.00 0.00 0.00 77 1011.9
20260510024901 65 151 0.0 0.0 0.00 0.00 0.00 76 1012.2
20260510024357 65 151 0.0 0.0 0.00 0.00 0.00 77 1012.1
20260510023853 65 154 0.0 0.0 0.00 0.00 0.00 76 1012.0
20260510023350 65 123 0.0 0.0 0.00 0.00 0.00 77 1012.0
20260510022848 64 160 0.0 0.0 0.00 0.00 0.00 77 1011.8
20260510022347 65 150 0.0 0.0 0.00 0.00 0.00 76 1012.0
20260510021845 65 161 0.0 0.0 0.00 0.00 0.00 76 1011.9
20260510021344 64 137 0.0 0.0 0.00 0.00 0.00 76 1011.8
20260510020840 64 141 0.0 0.0 0.00 0.00 0.00 76 1011.6
20260510020335 64 145 0.0 0.0 0.00 0.00 0.00 76 1011.7
20260510015831 64 151 0.0 0.0 0.00 0.00 0.00 75 1011.4
20260510015327 65 151 0.0 0.0 0.00 0.00 0.00 75 1011.3
20260510014822 65 146 0.0 0.0 0.00 0.00 0.00 74 1011.3
20260510014320 65 141 0.0 0.0 0.00 0.00 0.00 74 1011.2
20260510013816 65 151 0.0 0.0 0.00 0.00 0.00 73 1011.2
20260510013311 66 151 0.0 0.0 0.00 0.00 0.00 72 1011.5
20260510012806 66 151 0.0 0.0 0.00 0.00 0.00 72 1011.5
20260510012300 66 152 0.0 0.0 0.00 0.00 0.00 71 1011.2
20260510011755 66 150 0.0 0.0 0.00 0.00 0.00 71 1011.0
20260510011251 66 151 0.0 0.0 0.00 0.00 0.00 71 1011.2
20260510010748 66 144 0.0 0.0 0.00 0.00 0.00 70 1011.0
20260510010244 66 144 0.0 0.0 0.00 0.00 0.00 70 1011.0
20260510005742 66 149 0.0 0.0 0.00 0.00 0.00 69 1010.9
20260510005238 66 149 0.0 0.0 0.00 0.00 0.00 68 1011.0
20260510004736 67 148 0.0 0.0 0.00 0.00 0.00 67 1010.9
20260510004233 67 148 0.0 0.0 0.00 0.00 0.00 67 1010.6
20260510003731 67 151 0.0 0.0 0.00 0.00 0.00 66 1010.8
20260510003227 68 153 0.0 0.0 0.00 0.00 0.00 65 1010.4
20260510002725 68 153 0.0 0.0 0.00 0.00 0.00 64 1010.5
20260510002223 69 154 0.0 0.0 0.00 0.00 0.00 62 1010.3
20260510001720 70 154 0.0 0.0 0.00 0.00 0.00 61 1010.4
20260510001219 70 149 0.0 0.0 0.00 0.00 0.00 60 1010.3
20260510000714 71 153 0.0 0.0 0.00 0.00 0.00 60 1010.0
20260510000212 71 152 0.0 0.0 0.00 0.00 0.00 58 1010.2
20260509235708 72 162 0.0 0.0 0.00 0.00 0.00 58 1010.1
20260509235204 72 131 0.0 0.9 0.00 0.00 0.00 55 1010.1
20260509234701 73 195 0.9 2.6 0.00 0.00 0.00 54 1010.0
20260509234158 73 162 0.9 0.9 0.00 0.00 0.00 54 1009.9
20260509233656 73 156 0.0 0.0 0.00 0.00 0.00 55 1010.0
20260509233153 73 158 0.0 0.9 0.00 0.00 0.00 55 1010.0
20260509232649 73 163 0.0 0.0 0.00 0.00 0.00 55 1010.0
20260509232146 73 157 0.0 0.9 0.00 0.00 0.00 55 1009.9
20260509231643 74 149 0.0 0.0 0.00 0.00 0.00 54 1010.1
20260509231140 74 154 0.0 0.0 0.00 0.00 0.00 52 1010.1
20260509230637 74 143 1.7 2.6 0.00 0.00 0.00 51 1010.1
20260509230134 75 155 0.0 0.9 0.00 0.00 0.00 52 1010.0
20260509225630 75 164 0.0 1.7 0.00 0.00 0.00 51 1009.9
20260509225125 75 138 0.9 0.9 0.00 0.00 0.00 50 1010.1
20260509224621 75 160 0.0 0.9 0.00 0.00 0.00 51 1009.9
20260509224118 75 167 0.9 1.7 0.00 0.00 0.00 50 1009.8
20260509223615 75 160 0.9 2.6 0.00 0.00 0.00 50 1010.0
20260509223113 76 178 0.9 1.7 0.00 0.00 0.00 50 1009.7
20260509222608 76 150 0.0 0.9 0.00 0.00 0.00 50 1010.0
20260509222105 76 156 0.0 2.6 0.00 0.00 0.00 51 1010.0
20260509221600 77 152 0.0 0.9 0.00 0.00 0.00 50 1010.0
20260509221056 77 158 0.9 2.6 0.00 0.00 0.00 51 1010.1
20260509220552 76 179 0.9 0.9 0.00 0.00 0.00 50 1010.0
20260509220049 76 205 1.7 1.7 0.00 0.00 0.00 50 1009.9
20260509215544 76 165 0.0 0.9 0.00 0.00 0.00 52 1009.8
20260509215042 75 160 0.0 0.9 0.00 0.00 0.00 51 1009.8
20260509214539 76 131 0.9 3.5 0.00 0.00 0.00 50 1009.9
20260509214036 77 139 0.0 3.5 0.00 0.00 0.00 50 1009.7
20260509213532 77 162 0.9 3.5 0.00 0.00 0.00 49 1009.9
20260509213029 77 172 0.0 5.2 0.00 0.00 0.00 49 1009.9
20260509212526 78 167 4.3 6.1 0.00 0.00 0.00 47 1009.9
20260509212023 78 164 4.3 7.0 0.00 0.00 0.00 47 1009.8
20260509211518 78 181 1.7 5.2 0.00 0.00 0.00 47 1009.8
20260509211016 78 179 1.7 8.7 0.00 0.00 0.00 48 1009.8
20260509210512 78 108 0.9 2.6 0.00 0.00 0.00 48 1009.8
20260509210009 78 182 1.7 7.0 0.00 0.00 0.00 48 1009.9
20260509205503 79 156 0.9 0.9 0.00 0.00 0.00 49 1009.7
20260509204958 79 160 0.0 2.6 0.00 0.00 0.00 49 1009.6
20260509204455 78 181 0.9 2.6 0.00 0.00 0.00 47 1009.7
20260509203951 78 138 0.9 1.7 0.00 0.00 0.00 47 1009.6
20260509203447 78 160 4.3 7.0 0.00 0.00 0.00 45 1009.7
20260509202945 78 77 2.6 5.2 0.00 0.00 0.00 46 1009.7
20260509202441 78 122 0.9 1.7 0.00 0.00 0.00 45 1009.8
20260509201936 78 187 3.5 5.2 0.00 0.00 0.00 46 1009.7
20260509201426 77 163 0.9 3.5 0.00 0.00 0.00 46 1009.6
20260509200923 78 110 3.5 8.7 0.00 0.00 0.00 46 1009.8
20260509200423 79 163 0.0 3.5 0.00 0.00 0.00 46 1009.8
20260509195919 78 155 0.0 5.2 0.00 0.00 0.00 47 1010.0
20260509195415 75 186 1.7 7.8 0.00 0.00 0.00 48 1010.1
20260509194909 74 168 0.9 3.5 0.00 0.00 0.00 50 1010.2
20260509194405 74 209 1.7 2.6 0.00 0.00 0.00 50 1010.4
20260509193901 74 149 0.9 3.5 0.00 0.00 0.00 50 1010.3
20260509193356 74 201 1.7 2.6 0.00 0.00 0.00 50 1010.3
20260509192852 74 157 0.0 0.9 0.00 0.00 0.00 50 1010.3
20260509192348 75 181 2.6 5.2 0.00 0.00 0.00 49 1010.4
20260509191844 75 133 2.6 3.5 0.00 0.00 0.00 48 1010.3
20260509191340 77 158 0.9 0.9 0.00 0.00 0.00 49 1010.5
20260509190836 77 149 2.6 5.2 0.00 0.00 0.00 44 1010.4
20260509190333 77 165 0.9 2.6 0.00 0.00 0.00 47 1010.6
20260509185830 78 154 1.7 3.5 0.00 0.00 0.00 46 1010.5
20260509185327 79 227 1.7 2.6 0.00 0.00 0.00 45 1010.8
20260509184825 77 178 2.6 2.6 0.00 0.00 0.00 45 1011.0
20260509184321 77 181 1.7 2.6 0.00 0.00 0.00 47 1011.1
20260509183817 75 176 0.9 1.7 0.00 0.00 0.00 50 1011.1
20260509183307 76 148 2.6 3.5 0.00 0.00 0.00 47 1011.1
20260509182803 77 133 1.7 2.6 0.00 0.00 0.00 46 1011.2
20260509182300 77 130 0.9 3.5 0.00 0.00 0.00 47 1011.3
20260509181757 75 168 0.0 0.9 0.00 0.00 0.00 49 1011.4
20260509181255 75 183 1.7 5.2 0.00 0.00 0.00 47 1011.4
20260509180752 77 200 2.6 2.6 0.00 0.00 0.00 44 1011.6
20260509180248 77 200 1.7 5.2 0.00 0.00 0.00 45 1011.4
20260509175744 77 115 1.7 2.6 0.00 0.00 0.00 46 1011.6
20260509175241 77 148 1.7 3.5 0.00 0.00 0.00 45 1011.5
20260509174737 77 165 1.7 2.6 0.00 0.00 0.00 47 1011.7
20260509174233 77 180 0.9 2.6 0.00 0.00 0.00 47 1011.7
20260509173729 77 179 0.9 7.0 0.00 0.00 0.00 47 1011.7
20260509173225 77 62 2.6 6.1 0.00 0.00 0.00 47 1011.5
20260509172721 75 73 1.7 6.1 0.00 0.00 0.00 48 1011.7
20260509172217 77 138 1.7 6.1 0.00 0.00 0.00 48 1011.8
20260509171713 77 149 0.9 3.5 0.00 0.00 0.00 51 1012.0
20260509171210 75 192 0.9 2.6 0.00 0.00 0.00 51 1012.0
20260509170707 75 214 1.7 5.2 0.00 0.00 0.00 51 1012.0
20260509170202 75 244 1.7 3.5 0.00 0.00 0.00 51 1012.1
20260509165701 75 178 2.6 5.2 0.00 0.00 0.00 51 1012.2
20260509165156 74 201 1.7 2.6 0.00 0.00 0.00 52 1012.5
20260509164653 74 158 0.0 2.6 0.00 0.00 0.00 52 1012.6
20260509164148 73 165 0.9 5.2 0.00 0.00 0.00 54 1012.7
20260509163646 75 201 0.9 6.1 0.00 0.00 0.00 50 1012.5
20260509163142 74 108 1.7 2.6 0.00 0.00 0.00 51 1012.4
20260509162639 74 176 1.7 6.1 0.00 0.00 0.00 51 1012.3
20260509162135 75 189 0.0 3.5 0.00 0.00 0.00 49 1012.3
20260509161631 74 182 1.7 6.1 0.00 0.00 0.00 51 1012.4
20260509161126 73 166 1.7 3.5 0.00 0.00 0.00 50 1012.5
20260509160622 75 211 5.2 7.8 0.00 0.00 0.00 49 1012.5
20260509160118 74 157 1.7 6.1 0.00 0.00 0.00 51 1012.6
20260509155614 75 133 1.7 3.5 0.00 0.00 0.00 50 1012.5
20260509155111 74 206 1.7 5.2 0.00 0.00 0.00 48 1012.9
20260509154606 73 154 0.9 3.5 0.00 0.00 0.00 50 1013.1
20260509154104 73 194 4.3 7.0 0.00 0.00 0.00 50 1013.0